TimeEST,TemperatureF,Dew PointF,Humidity,Sea Level PressureIn,VisibilityMPH,Wind Direction,Wind SpeedMPH,Gust SpeedMPH,PrecipitationIn,Events,Conditions,WindDirDegrees,DateUTC
12:53 AM,27.0,14.0,58,30.07,10.0,West,4.6,-,N/A,,Clear,280,2012-11-06 05:53:00
1:53 AM,26.1,15.1,63,30.08,10.0,WNW,5.8,-,N/A,,Partly Cloudy,290,2012-11-06 06:53:00
2:53 AM,25.0,15.1,66,30.09,10.0,WSW,4.6,-,N/A,,Clear,240,2012-11-06 07:53:00
3:53 AM,26.1,17.1,69,30.10,10.0,West,6.9,-,N/A,,Overcast,270,2012-11-06 08:53:00
4:53 AM,24.1,18.0,77,30.12,10.0,WSW,4.6,-,N/A,,Clear,250,2012-11-06 09:53:00
5:53 AM,23.0,18.0,81,30.13,10.0,West,3.5,-,N/A,,Partly Cloudy,260,2012-11-06 10:53:00
6:53 AM,25.0,19.0,78,30.14,10.0,West,6.9,-,N/A,,Partly Cloudy,260,2012-11-06 11:53:00
7:53 AM,28.0,19.0,69,30.16,10.0,West,5.8,-,N/A,,Partly Cloudy,260,2012-11-06 12:53:00
8:53 AM,30.9,18.0,59,30.17,10.0,West,8.1,-,N/A,,Partly Cloudy,260,2012-11-06 13:53:00
9:53 AM,34.0,18.0,52,30.18,10.0,NW,10.4,-,N/A,,Scattered Clouds,310,2012-11-06 14:53:00
10:53 AM,34.0,16.0,48,30.19,10.0,WNW,6.9,-,N/A,,Mostly Cloudy,300,2012-11-06 15:53:00
11:53 AM,36.0,17.1,46,30.18,10.0,NW,10.4,-,N/A,,Mostly Cloudy,310,2012-11-06 16:53:00
12:53 PM,37.0,15.1,41,30.17,10.0,WSW,12.7,18.4,N/A,,Partly Cloudy,240,2012-11-06 17:53:00
1:53 PM,37.0,15.1,41,30.19,10.0,West,10.4,16.1,N/A,,Partly Cloudy,270,2012-11-06 18:53:00
2:53 PM,36.0,14.0,41,30.19,10.0,Variable,4.6,-,N/A,,Scattered Clouds,0,2012-11-06 19:53:00
3:53 PM,35.1,12.0,39,30.21,10.0,WNW,5.8,-,N/A,,Partly Cloudy,290,2012-11-06 20:53:00
4:53 PM,30.0,14.0,51,30.22,10.0,Calm,Calm,-,N/A,,Partly Cloudy,0,2012-11-06 21:53:00
5:53 PM,27.0,17.1,66,30.24,10.0,Calm,Calm,-,N/A,,Clear,0,2012-11-06 22:53:00
6:53 PM,25.0,17.1,72,30.25,10.0,Calm,Calm,-,N/A,,Clear,0,2012-11-06 23:53:00
7:53 PM,25.0,17.1,72,30.26,10.0,Calm,Calm,-,N/A,,Clear,0,2012-11-07 00:53:00
8:53 PM,23.0,17.1,78,30.27,10.0,Calm,Calm,-,N/A,,Clear,0,2012-11-07 01:53:00
9:53 PM,23.0,17.1,78,30.28,10.0,Calm,Calm,-,N/A,,Clear,0,2012-11-07 02:53:00
10:53 PM,21.9,17.1,82,30.28,10.0,Calm,Calm,-,N/A,,Clear,0,2012-11-07 03:53:00
11:53 PM,21.0,17.1,85,30.27,10.0,Calm,Calm,-,N/A,,Clear,0,2012-11-07 04:53:00